This is the latest recevied weather packets stored in our database for station/object DB0TV-13. If no packets are shown the sender has not sent any weather packets the latest 10 day(s).
| Time | Temp. | Humidity | Pressure | Rain* | Wind** | Luminosity | Snow |
|---|---|---|---|---|---|---|---|
| 1777884019 | 17.22° C | 75% | 1013.5 hPa | 0 mm | - | 427 W/m² | - |
| 1777883419 | 16.67° C | 74% | 1013.6 hPa | 0 mm | - | 471 W/m² | - |
| 1777882819 | 16.67° C | 75% | 1013.6 hPa | 0 mm | - | 499 W/m² | - |
| 1777882219 | 16.11° C | 77% | 1013.6 hPa | 0 mm | - | 502 W/m² | - |
| 1777881619 | 15.56° C | 77% | 1013.5 hPa | 0 mm | - | 447 W/m² | - |
| 1777881019 | 15° C | 77% | 1013.5 hPa | 0 mm | - | 331 W/m² | - |
| 1777880419 | 15° C | 78% | 1013.4 hPa | 0 mm | - | 311 W/m² | - |
| 1777879819 | 14.44° C | 78% | 1013.3 hPa | 0 mm | - | 218 W/m² | - |
| 1777879219 | 14.44° C | 79% | 1013.3 hPa | 0 mm | - | 284 W/m² | - |
| 1777878619 | 14.44° C | 79% | 1013.3 hPa | 0 mm | - | 195 W/m² | - |
| 1777878019 | 14.44° C | 81% | 1013.2 hPa | 0 mm | - | 297 W/m² | - |
| 1777877419 | 13.89° C | 81% | 1013.1 hPa | 0 mm | - | 198 W/m² | - |
| 1777876819 | 14.44° C | 81% | 1013.1 hPa | 0 mm | - | 166 W/m² | - |
| 1777876219 | 13.89° C | 84% | 1012.9 hPa | 0 mm | - | 417 W/m² | - |
| 1777875619 | 12.78° C | 84% | 1012.8 hPa | 0 mm | - | 137 W/m² | - |
| 1777875019 | 12.78° C | 85% | 1012.8 hPa | 0 mm | - | 152 W/m² | - |
| 1777874419 | 12.78° C | 84% | 1012.8 hPa | 0 mm | - | 105 W/m² | - |
| 1777873819 | 12.22° C | 85% | 1012.7 hPa | 0 mm | - | 77 W/m² | - |
| 1777873219 | 12.22° C | 86% | 1012.5 hPa | 0 mm | - | 122 W/m² | - |
| 1777872619 | 12.22° C | 87% | 1012.5 hPa | 0 mm | - | 87 W/m² | - |
| 1777872019 | 12.22° C | 87% | 1012.3 hPa | 0 mm | - | 65 W/m² | - |
| 1777871419 | 11.67° C | 87% | 1012.3 hPa | 0 mm | - | 51 W/m² | - |
| 1777870819 | 11.67° C | 87% | 1012.3 hPa | 0 mm | - | 45 W/m² | - |
| 1777870218 | 11.67° C | 87% | 1012 hPa | 0 mm | - | 34 W/m² | - |
| 1777869619 | 11.67° C | 88% | 1012.1 hPa | 0 mm | - | 9 W/m² | - |
* Rain latest hour (hover to see other rain measurements)
** Current wind speed in m/s (hover to see current wind gust speed)